| time (UTC) | temp F | wind direction | speed knots | gust knots | rain 1hr in | rain 24hr in | rain mn in | humidity % | barometer mb |
| 20260508025422 | 42 | 191 | 0.0 | 2.6 | 0.00 | 0.00 | 0.00 | 53 | 1007.0 |
| 20260508024919 | 42 | 268 | 1.7 | 2.6 | 0.00 | 0.00 | 0.00 | 53 | 1007.1 |
| 20260508024416 | 42 | 288 | 7.0 | 7.8 | 0.00 | 0.00 | 0.00 | 52 | 1007.2 |
| 20260508023912 | 42 | 308 | 2.6 | 5.2 | 0.00 | 0.00 | 0.00 | 52 | 1007.2 |
| 20260508023409 | 43 | 281 | 0.9 | 5.2 | 0.00 | 0.00 | 0.00 | 52 | 1007.1 |
| 20260508022906 | 42 | 287 | 1.7 | 6.1 | 0.00 | 0.00 | 0.00 | 52 | 1007.0 |
| 20260508022401 | 43 | 297 | 5.2 | 5.2 | 0.00 | 0.00 | 0.00 | 52 | 1007.1 |
| 20260508021859 | 43 | 268 | 3.5 | 6.1 | 0.00 | 0.00 | 0.00 | 51 | 1007.2 |
| 20260508021355 | 43 | 325 | 2.6 | 3.5 | 0.00 | 0.00 | 0.00 | 52 | 1007.3 |
| 20260508020850 | 43 | 345 | 0.0 | 2.6 | 0.00 | 0.00 | 0.00 | 59 | 1007.1 |
| 20260508020349 | 43 | 314 | 0.0 | 3.5 | 0.00 | 0.00 | 0.00 | 51 | 1007.0 |
| 20260508015845 | 43 | 251 | 0.9 | 2.6 | 0.00 | 0.00 | 0.00 | 51 | 1007.0 |
| 20260508015343 | 43 | 303 | 2.6 | 3.5 | 0.00 | 0.00 | 0.00 | 52 | 1007.1 |
| 20260508014839 | 43 | 297 | 5.2 | 7.0 | 0.00 | 0.00 | 0.00 | 51 | 1007.0 |
| 20260508014337 | 44 | 274 | 1.7 | 5.2 | 0.00 | 0.00 | 0.00 | 50 | 1007.1 |
| 20260508013837 | 44 | 309 | 4.3 | 4.3 | 0.00 | 0.00 | 0.00 | 51 | 1007.1 |
| 20260508013334 | 44 | 314 | 2.6 | 4.3 | 0.00 | 0.00 | 0.00 | 49 | 1007.3 |
| 20260508012831 | 44 | 317 | 0.0 | 4.3 | 0.00 | 0.00 | 0.00 | 50 | 1007.2 |
| 20260508012329 | 42 | 27 | 0.9 | 4.3 | 0.00 | 0.00 | 0.00 | 52 | 1007.1 |
| 20260508011826 | 43 | 32 | 1.7 | 2.6 | 0.00 | 0.00 | 0.00 | 56 | 1007.2 |
| 20260508011324 | 43 | 68 | 0.9 | 2.6 | 0.00 | 0.00 | 0.00 | 55 | 1007.3 |
| 20260508010821 | 44 | 107 | 2.6 | 2.6 | 0.00 | 0.00 | 0.00 | 55 | 1007.2 |
| 20260508010319 | 44 | 337 | 1.7 | 5.2 | 0.00 | 0.00 | 0.00 | 52 | 1007.1 |
| 20260508005815 | 44 | 275 | 1.7 | 2.6 | 0.00 | 0.00 | 0.00 | 50 | 1007.3 |
| 20260508005312 | 44 | 353 | 2.6 | 2.6 | 0.00 | 0.00 | 0.00 | 50 | 1007.2 |
| 20260508004808 | 44 | 116 | 0.0 | 1.7 | 0.00 | 0.00 | 0.00 | 51 | 1007.3 |
| 20260508004304 | 45 | 87 | 2.6 | 4.3 | 0.00 | 0.00 | 0.00 | 49 | 1007.0 |
| 20260508003801 | 45 | 271 | 5.2 | 7.8 | 0.00 | 0.00 | 0.00 | 45 | 1006.9 |
| 20260508003259 | 45 | 350 | 3.5 | 4.3 | 0.00 | 0.00 | 0.00 | 48 | 1006.9 |
| 20260508002755 | 45 | 32 | 0.0 | 3.5 | 0.00 | 0.00 | 0.00 | 46 | 1006.7 |
| 20260508002252 | 46 | 331 | 1.7 | 7.8 | 0.00 | 0.00 | 0.00 | 45 | 1006.7 |
| 20260508001748 | 46 | 284 | 1.7 | 5.2 | 0.00 | 0.00 | 0.00 | 44 | 1006.7 |
| 20260508001243 | 46 | 286 | 4.3 | 6.1 | 0.00 | 0.00 | 0.00 | 44 | 1006.7 |
| 20260508000740 | 46 | 311 | 3.5 | 7.8 | 0.00 | 0.00 | 0.00 | 44 | 1006.5 |
| 20260508000237 | 46 | 309 | 3.5 | 8.7 | 0.00 | 0.00 | 0.00 | 43 | 1006.5 |
| 20260507235733 | 47 | 284 | 4.3 | 10.4 | 0.00 | 0.00 | 0.00 | 43 | 1006.6 |
| 20260507235231 | 47 | 275 | 4.3 | 7.8 | 0.00 | 0.00 | 0.00 | 43 | 1006.4 |
| 20260507234728 | 47 | 311 | 5.2 | 7.8 | 0.00 | 0.00 | 0.00 | 43 | 1006.4 |
| 20260507234224 | 47 | 283 | 3.5 | 6.1 | 0.00 | 0.00 | 0.00 | 43 | 1006.5 |
| 20260507233721 | 48 | 287 | 4.3 | 11.3 | 0.00 | 0.00 | 0.00 | 41 | 1006.5 |
| 20260507233219 | 48 | 315 | 6.1 | 7.0 | 0.00 | 0.00 | 0.00 | 41 | 1006.5 |
| 20260507232716 | 49 | 305 | 2.6 | 10.4 | 0.00 | 0.00 | 0.00 | 41 | 1006.2 |
| 20260507232213 | 50 | 337 | 2.6 | 8.7 | 0.00 | 0.00 | 0.00 | 40 | 1006.1 |
| 20260507231710 | 50 | 306 | 7.8 | 12.2 | 0.00 | 0.00 | 0.00 | 41 | 1006.0 |
| 20260507231207 | 50 | 308 | 3.5 | 10.4 | 0.00 | 0.00 | 0.00 | 39 | 1005.9 |
| 20260507230703 | 50 | 260 | 10.4 | 14.8 | 0.00 | 0.00 | 0.00 | 39 | 1005.9 |
| 20260507230201 | 51 | 300 | 5.2 | 11.3 | 0.00 | 0.00 | 0.00 | 38 | 1006.0 |
| 20260507225700 | 51 | 300 | 3.5 | 9.6 | 0.00 | 0.00 | 0.00 | 40 | 1005.8 |
| 20260507225157 | 51 | 294 | 5.2 | 10.4 | 0.00 | 0.00 | 0.00 | 39 | 1005.9 |
| 20260507224653 | 52 | 315 | 9.6 | 12.2 | 0.00 | 0.00 | 0.00 | 37 | 1005.9 |
| 20260507224149 | 52 | 326 | 5.2 | 13.0 | 0.00 | 0.00 | 0.00 | 38 | 1005.9 |
| 20260507223645 | 52 | 332 | 3.5 | 14.8 | 0.00 | 0.00 | 0.00 | 38 | 1005.7 |
| 20260507223142 | 53 | 326 | 8.7 | 15.6 | 0.00 | 0.00 | 0.00 | 38 | 1005.6 |
| 20260507222639 | 53 | 283 | 8.7 | 14.8 | 0.00 | 0.00 | 0.00 | 40 | 1005.7 |
| 20260507222136 | 53 | 303 | 4.3 | 12.2 | 0.00 | 0.00 | 0.00 | 39 | 1005.7 |
| 20260507221632 | 53 | 314 | 7.8 | 14.8 | 0.00 | 0.00 | 0.00 | 38 | 1005.8 |
| 20260507221128 | 53 | 283 | 5.2 | 7.0 | 0.00 | 0.00 | 0.00 | 41 | 1005.5 |
| 20260507220626 | 53 | 306 | 11.3 | 12.2 | 0.00 | 0.00 | 0.00 | 38 | 1005.4 |
| 20260507220124 | 54 | 289 | 7.0 | 17.4 | 0.00 | 0.00 | 0.00 | 38 | 1005.5 |
| 20260507215619 | 53 | 296 | 8.7 | 13.9 | 0.00 | 0.00 | 0.00 | 40 | 1005.4 |
| 20260507215117 | 52 | 291 | 11.3 | 12.2 | 0.00 | 0.00 | 0.00 | 38 | 1005.5 |
| 20260507214614 | 53 | 271 | 7.0 | 13.0 | 0.00 | 0.00 | 0.00 | 37 | 1005.3 |
| 20260507214110 | 52 | 232 | 9.6 | 13.0 | 0.00 | 0.00 | 0.00 | 40 | 1005.1 |
| 20260507213607 | 52 | 301 | 7.8 | 11.3 | 0.00 | 0.00 | 0.00 | 39 | 1005.2 |
| 20260507213104 | 54 | 306 | 11.3 | 15.6 | 0.00 | 0.00 | 0.00 | 37 | 1005.5 |
| 20260507212600 | 53 | 284 | 13.0 | 13.9 | 0.00 | 0.00 | 0.00 | 41 | 1005.3 |
| 20260507212057 | 54 | 299 | 9.6 | 11.3 | 0.00 | 0.00 | 0.00 | 42 | 1005.1 |
| 20260507211553 | 53 | 294 | 8.7 | 11.3 | 0.00 | 0.00 | 0.00 | 41 | 1005.1 |
| 20260507211049 | 52 | 295 | 6.1 | 6.1 | 0.00 | 0.00 | 0.00 | 41 | 1005.1 |
| 20260507210547 | 53 | 265 | 5.2 | 11.3 | 0.00 | 0.00 | 0.00 | 40 | 1005.0 |
| 20260507210043 | 54 | 269 | 7.8 | 15.6 | 0.00 | 0.00 | 0.00 | 41 | 1005.0 |
| 20260507205540 | 54 | 334 | 3.5 | 8.7 | 0.00 | 0.00 | 0.00 | 38 | 1005.0 |
| 20260507205037 | 53 | 291 | 17.4 | 18.2 | 0.00 | 0.00 | 0.00 | 40 | 1005.0 |
| 20260507204533 | 54 | 262 | 13.0 | 14.8 | 0.00 | 0.00 | 0.00 | 42 | 1004.7 |
| 20260507204031 | 54 | 291 | 13.0 | 19.1 | 0.00 | 0.00 | 0.00 | 39 | 1004.8 |
| 20260507203529 | 54 | 262 | 11.3 | 13.0 | 0.00 | 0.00 | 0.00 | 42 | 1004.9 |
| 20260507203026 | 54 | 288 | 5.2 | 17.4 | 0.00 | 0.00 | 0.00 | 39 | 1004.8 |
| 20260507202521 | 55 | 305 | 10.4 | 16.5 | 0.00 | 0.00 | 0.00 | 41 | 1004.7 |
| 20260507202018 | 54 | 290 | 6.1 | 19.1 | 0.00 | 0.00 | 0.00 | 39 | 1004.7 |
| 20260507201513 | 55 | 284 | 15.6 | 16.5 | 0.00 | 0.00 | 0.00 | 38 | 1004.6 |
| 20260507201010 | 54 | 282 | 10.4 | 13.0 | 0.00 | 0.00 | 0.00 | 41 | 1004.5 |
| 20260507200505 | 55 | 266 | 7.0 | 13.0 | 0.00 | 0.00 | 0.00 | 39 | 1004.5 |
| 20260507200001 | 55 | 289 | 9.6 | 13.9 | 0.00 | 0.00 | 0.00 | 42 | 1004.5 |
| 20260507195459 | 56 | 316 | 11.3 | 18.2 | 0.00 | 0.00 | 0.00 | 40 | 1004.6 |
| 20260507194956 | 55 | 278 | 12.2 | 20.9 | 0.00 | 0.00 | 0.00 | 39 | 1004.4 |
| 20260507194453 | 55 | 239 | 14.8 | 17.4 | 0.00 | 0.00 | 0.00 | 40 | 1004.2 |
| 20260507193948 | 53 | 276 | 5.2 | 14.8 | 0.00 | 0.00 | 0.00 | 40 | 1004.3 |
| 20260507193446 | 54 | 325 | 4.3 | 11.3 | 0.00 | 0.00 | 0.00 | 41 | 1004.5 |
| 20260507192942 | 57 | 306 | 11.3 | 16.5 | 0.00 | 0.00 | 0.00 | 38 | 1004.3 |
| 20260507192438 | 57 | 285 | 8.7 | 13.0 | 0.00 | 0.00 | 0.00 | 38 | 1004.3 |
| 20260507191936 | 57 | 287 | 11.3 | 12.2 | 0.00 | 0.00 | 0.00 | 40 | 1004.2 |
| 20260507191431 | 56 | 251 | 7.8 | 17.4 | 0.00 | 0.00 | 0.00 | 35 | 1004.2 |
| 20260507190928 | 57 | 284 | 7.8 | 17.4 | 0.00 | 0.00 | 0.00 | 40 | 1004.3 |
| 20260507190426 | 57 | 252 | 8.7 | 11.3 | 0.00 | 0.00 | 0.00 | 36 | 1004.2 |
| 20260507185925 | 56 | 282 | 10.4 | 15.6 | 0.00 | 0.00 | 0.00 | 37 | 1004.2 |
| 20260507185422 | 57 | 245 | 9.6 | 15.6 | 0.00 | 0.00 | 0.00 | 35 | 1004.3 |
| 20260507184918 | 56 | 303 | 11.3 | 13.0 | 0.00 | 0.00 | 0.00 | 38 | 1004.2 |
| 20260507184416 | 56 | 265 | 5.2 | 14.8 | 0.00 | 0.00 | 0.00 | 38 | 1004.3 |
| 20260507183914 | 57 | 244 | 13.9 | 13.9 | 0.00 | 0.00 | 0.00 | 39 | 1004.2 |
| 20260507183410 | 57 | 287 | 7.8 | 11.3 | 0.00 | 0.00 | 0.00 | 40 | 1004.4 |
| 20260507182908 | 56 | 290 | 5.2 | 14.8 | 0.00 | 0.00 | 0.00 | 38 | 1004.3 |
| 20260507182403 | 56 | 266 | 10.4 | 13.9 | 0.00 | 0.00 | 0.00 | 40 | 1004.5 |
| 20260507181900 | 56 | 256 | 10.4 | 13.9 | 0.00 | 0.00 | 0.00 | 42 | 1004.5 |
| 20260507181356 | 56 | 290 | 10.4 | 16.5 | 0.00 | 0.00 | 0.00 | 44 | 1004.5 |
| 20260507180853 | 56 | 268 | 7.0 | 13.9 | 0.00 | 0.00 | 0.00 | 46 | 1004.6 |
| 20260507180349 | 55 | 299 | 9.6 | 13.9 | 0.00 | 0.00 | 0.00 | 50 | 1004.7 |
| 20260507175845 | 56 | 232 | 7.0 | 14.8 | 0.00 | 0.00 | 0.00 | 49 | 1004.5 |
| 20260507175343 | 56 | 281 | 7.0 | 13.0 | 0.00 | 0.00 | 0.00 | 48 | 1004.6 |
| 20260507174840 | 55 | 297 | 8.7 | 12.2 | 0.00 | 0.00 | 0.00 | 48 | 1004.5 |
| 20260507174337 | 54 | 293 | 7.0 | 14.8 | 0.00 | 0.00 | 0.00 | 50 | 1004.6 |
| 20260507173835 | 54 | 264 | 7.0 | 11.3 | 0.00 | 0.00 | 0.00 | 55 | 1004.7 |
| 20260507173332 | 53 | 260 | 4.3 | 14.8 | 0.00 | 0.00 | 0.00 | 57 | 1004.8 |
| 20260507172828 | 53 | 273 | 7.0 | 13.0 | 0.00 | 0.00 | 0.00 | 58 | 1004.9 |
| 20260507172325 | 52 | 271 | 7.8 | 12.2 | 0.00 | 0.00 | 0.00 | 59 | 1004.8 |
| 20260507171820 | 53 | 296 | 8.7 | 12.2 | 0.00 | 0.00 | 0.00 | 58 | 1004.9 |
| 20260507171318 | 54 | 255 | 7.0 | 13.9 | 0.00 | 0.00 | 0.00 | 58 | 1005.0 |
| 20260507170815 | 53 | 284 | 7.8 | 13.9 | 0.00 | 0.00 | 0.00 | 58 | 1005.2 |
| 20260507170311 | 53 | 307 | 7.8 | 12.2 | 0.00 | 0.00 | 0.00 | 60 | 1005.1 |
| 20260507165807 | 53 | 250 | 8.7 | 13.9 | 0.00 | 0.00 | 0.00 | 58 | 1005.1 |
| 20260507165306 | 52 | 262 | 7.0 | 10.4 | 0.00 | 0.00 | 0.00 | 61 | 1005.3 |
| 20260507164759 | 52 | 251 | 10.4 | 10.4 | 0.00 | 0.00 | 0.00 | 60 | 1005.4 |
| 20260507164257 | 52 | 248 | 7.0 | 10.4 | 0.00 | 0.00 | 0.00 | 60 | 1005.5 |
| 20260507163754 | 52 | 300 | 5.2 | 11.3 | 0.00 | 0.00 | 0.00 | 63 | 1005.4 |
| 20260507163251 | 52 | 302 | 10.4 | 13.0 | 0.00 | 0.00 | 0.00 | 62 | 1005.4 |
| 20260507162747 | 52 | 263 | 8.7 | 13.9 | 0.00 | 0.00 | 0.00 | 61 | 1005.5 |
| 20260507162243 | 52 | 318 | 8.7 | 8.7 | 0.00 | 0.00 | 0.00 | 61 | 1005.4 |
| 20260507161740 | 52 | 254 | 5.2 | 11.3 | 0.00 | 0.00 | 0.00 | 63 | 1005.6 |
| 20260507161237 | 52 | 259 | 2.6 | 9.6 | 0.00 | 0.00 | 0.00 | 59 | 1005.4 |
| 20260507160732 | 52 | 264 | 7.8 | 9.6 | 0.00 | 0.00 | 0.00 | 63 | 1005.6 |
| 20260507160229 | 52 | 282 | 5.2 | 9.6 | 0.00 | 0.00 | 0.00 | 60 | 1005.5 |
| 20260507155725 | 52 | 322 | 4.3 | 7.8 | 0.00 | 0.00 | 0.00 | 61 | 1005.6 |
| 20260507155221 | 52 | 281 | 5.2 | 10.4 | 0.00 | 0.00 | 0.00 | 62 | 1005.8 |
| 20260507154718 | 52 | 308 | 7.0 | 13.0 | 0.00 | 0.00 | 0.00 | 61 | 1005.8 |
| 20260507154216 | 54 | 281 | 8.7 | 15.6 | 0.00 | 0.00 | 0.00 | 58 | 1005.8 |
| 20260507153712 | 55 | 247 | 9.6 | 12.2 | 0.00 | 0.00 | 0.00 | 56 | 1005.7 |
| 20260507153209 | 55 | 303 | 7.0 | 13.0 | 0.00 | 0.00 | 0.00 | 57 | 1005.6 |
| 20260507152705 | 53 | 289 | 7.0 | 12.2 | 0.00 | 0.00 | 0.00 | 60 | 1005.9 |
| 20260507152201 | 52 | 230 | 7.0 | 8.7 | 0.00 | 0.00 | 0.00 | 62 | 1005.8 |
| 20260507151657 | 53 | 253 | 9.6 | 11.3 | 0.00 | 0.00 | 0.00 | 61 | 1005.7 |
| 20260507151154 | 52 | 261 | 7.8 | 13.0 | 0.00 | 0.00 | 0.00 | 61 | 1005.6 |
| 20260507150651 | 53 | 276 | 4.3 | 14.8 | 0.00 | 0.00 | 0.00 | 63 | 1005.7 |
| 20260507150148 | 53 | 277 | 7.8 | 13.0 | 0.00 | 0.00 | 0.00 | 63 | 1005.9 |
| 20260507145643 | 54 | 273 | 7.8 | 9.6 | 0.00 | 0.00 | 0.00 | 61 | 1005.8 |
| 20260507145141 | 53 | 316 | 9.6 | 11.3 | 0.00 | 0.00 | 0.00 | 63 | 1005.7 |
| 20260507144637 | 52 | 269 | 7.0 | 10.4 | 0.00 | 0.00 | 0.00 | 64 | 1005.8 |
| 20260507144136 | 53 | 251 | 7.8 | 12.2 | 0.00 | 0.00 | 0.00 | 68 | 1005.8 |
| 20260507143632 | 52 | 306 | 10.4 | 13.0 | 0.00 | 0.00 | 0.00 | 65 | 1005.8 |
| 20260507143129 | 52 | 282 | 12.2 | 13.9 | 0.00 | 0.00 | 0.00 | 63 | 1005.7 |
| 20260507142624 | 52 | 283 | 9.6 | 12.2 | 0.00 | 0.00 | 0.00 | 66 | 1005.8 |
| 20260507142122 | 53 | 246 | 6.1 | 10.4 | 0.00 | 0.00 | 0.00 | 63 | 1006.0 |
| 20260507141618 | 53 | 277 | 6.1 | 10.4 | 0.00 | 0.00 | 0.00 | 64 | 1006.1 |
| 20260507141115 | 52 | 299 | 8.7 | 10.4 | 0.00 | 0.00 | 0.00 | 65 | 1006.0 |
| 20260507140611 | 52 | 276 | 7.0 | 13.0 | 0.00 | 0.00 | 0.00 | 65 | 1005.9 |
| 20260507140109 | 51 | 231 | 2.6 | 12.2 | 0.00 | 0.00 | 0.00 | 66 | 1005.9 |
| 20260507135606 | 51 | 306 | 7.0 | 8.7 | 0.00 | 0.00 | 0.00 | 67 | 1005.8 |
| 20260507135103 | 52 | 256 | 4.3 | 10.4 | 0.00 | 0.00 | 0.00 | 67 | 1005.9 |
| 20260507134559 | 51 | 303 | 13.0 | 15.6 | 0.00 | 0.00 | 0.00 | 67 | 1005.7 |
| 20260507134055 | 52 | 294 | 9.6 | 10.4 | 0.00 | 0.00 | 0.00 | 68 | 1005.9 |
| 20260507133551 | 51 | 263 | 6.1 | 9.6 | 0.00 | 0.00 | 0.00 | 70 | 1005.8 |
| 20260507133049 | 51 | 303 | 7.8 | 9.6 | 0.00 | 0.00 | 0.00 | 68 | 1006.1 |
| 20260507132546 | 51 | 260 | 5.2 | 8.7 | 0.00 | 0.00 | 0.00 | 69 | 1006.0 |
| 20260507132042 | 51 | 257 | 5.2 | 9.6 | 0.00 | 0.00 | 0.00 | 67 | 1006.0 |
| 20260507131539 | 51 | 278 | 3.5 | 7.8 | 0.00 | 0.00 | 0.00 | 66 | 1006.1 |
| 20260507131037 | 51 | 291 | 5.2 | 7.8 | 0.00 | 0.00 | 0.00 | 69 | 1006.1 |
| 20260507130533 | 50 | 247 | 4.3 | 7.0 | 0.00 | 0.00 | 0.00 | 69 | 1006.2 |
| 20260507130031 | 50 | 246 | 3.5 | 7.0 | 0.00 | 0.00 | 0.00 | 69 | 1006.1 |
| 20260507125529 | 50 | 265 | 3.5 | 5.2 | 0.00 | 0.00 | 0.00 | 72 | 1006.0 |
| 20260507125027 | 50 | 277 | 4.3 | 7.8 | 0.00 | 0.00 | 0.00 | 70 | 1006.1 |
| 20260507124523 | 50 | 280 | 5.2 | 7.8 | 0.00 | 0.00 | 0.00 | 68 | 1006.2 |
| 20260507124021 | 49 | 274 | 3.5 | 5.2 | 0.00 | 0.00 | 0.00 | 71 | 1006.3 |
| 20260507123519 | 49 | 257 | 3.5 | 6.1 | 0.00 | 0.00 | 0.00 | 71 | 1006.0 |
| 20260507123015 | 49 | 287 | 1.7 | 5.2 | 0.00 | 0.00 | 0.00 | 69 | 1006.2 |
| 20260507122510 | 48 | 283 | 3.5 | 5.2 | 0.00 | 0.00 | 0.00 | 71 | 1006.4 |
| 20260507122007 | 48 | 302 | 4.3 | 7.8 | 0.00 | 0.00 | 0.00 | 72 | 1006.3 |
| 20260507121502 | 48 | 276 | 3.5 | 6.1 | 0.00 | 0.00 | 0.00 | 74 | 1006.4 |
| 20260507120958 | 48 | 286 | 3.5 | 3.5 | 0.00 | 0.00 | 0.00 | 74 | 1006.2 |
| 20260507120454 | 48 | 257 | 2.6 | 6.1 | 0.00 | 0.00 | 0.00 | 73 | 1006.3 |
| 20260507115952 | 48 | 229 | 0.9 | 3.5 | 0.00 | 0.00 | 0.00 | 73 | 1006.4 |
| 20260507115448 | 48 | 286 | 2.6 | 6.1 | 0.00 | 0.00 | 0.00 | 74 | 1006.5 |
| 20260507114943 | 48 | 246 | 3.5 | 4.3 | 0.00 | 0.00 | 0.00 | 75 | 1006.5 |
| 20260507114440 | 47 | 243 | 0.0 | 1.7 | 0.00 | 0.00 | 0.00 | 77 | 1006.5 |
| 20260507113937 | 46 | 236 | 5.2 | 5.2 | 0.00 | 0.00 | 0.00 | 76 | 1006.6 |
| 20260507113434 | 46 | 252 | 4.3 | 4.3 | 0.00 | 0.00 | 0.00 | 78 | 1006.6 |
| 20260507112932 | 46 | 254 | 3.5 | 6.1 | 0.00 | 0.00 | 0.00 | 80 | 1006.7 |
| 20260507112429 | 45 | 288 | 3.5 | 3.5 | 0.00 | 0.00 | 0.00 | 83 | 1006.7 |
| 20260507111926 | 44 | 162 | 2.6 | 2.6 | 0.00 | 0.00 | 0.00 | 90 | 1006.5 |
| 20260507111423 | 43 | 126 | 0.9 | 1.7 | 0.00 | 0.00 | 0.00 | 92 | 1006.3 |
| 20260507110919 | 42 | 115 | 1.7 | 1.7 | 0.00 | 0.00 | 0.00 | 92 | 1006.5 |
| 20260507110415 | 42 | 135 | 0.0 | 0.9 | 0.00 | 0.00 | 0.00 | 91 | 1006.4 |
| 20260507105913 | 43 | 84 | 0.0 | 1.7 | 0.00 | 0.00 | 0.00 | 88 | 1006.4 |
| 20260507105409 | 43 | 261 | 2.6 | 3.5 | 0.00 | 0.00 | 0.00 | 81 | 1006.6 |
| 20260507104906 | 44 | 257 | 1.7 | 3.5 | 0.00 | 0.00 | 0.00 | 81 | 1006.7 |
| 20260507104402 | 43 | 295 | 1.7 | 4.3 | 0.00 | 0.00 | 0.00 | 82 | 1006.6 |
| 20260507103858 | 43 | 186 | 0.9 | 2.6 | 0.00 | 0.00 | 0.00 | 85 | 1006.6 |
| 20260507103355 | 44 | 220 | 1.7 | 2.6 | 0.00 | 0.00 | 0.00 | 80 | 1006.4 |
| 20260507102851 | 43 | 211 | 0.9 | 3.5 | 0.00 | 0.00 | 0.00 | 82 | 1006.6 |
| 20260507102348 | 43 | 94 | 0.0 | 1.7 | 0.00 | 0.00 | 0.00 | 85 | 1006.2 |
| 20260507101844 | 43 | 304 | 0.9 | 4.3 | 0.00 | 0.00 | 0.00 | 79 | 1006.3 |
| 20260507101344 | 43 | 328 | 0.0 | 3.5 | 0.00 | 0.00 | 0.00 | 81 | 1006.5 |
| 20260507100842 | 43 | 263 | 1.7 | 2.6 | 0.00 | 0.00 | 0.00 | 84 | 1006.3 |
| 20260507100340 | 43 | 304 | 1.7 | 5.2 | 0.00 | 0.00 | 0.00 | 80 | 1006.2 |
| 20260507095838 | 43 | 247 | 0.0 | 8.7 | 0.00 | 0.00 | 0.00 | 80 | 1006.4 |
| 20260507095334 | 42 | 318 | 2.6 | 7.0 | 0.00 | 0.00 | 0.00 | 83 | 1006.2 |
| 20260507094831 | 41 | 273 | 1.7 | 5.2 | 0.00 | 0.00 | 0.00 | 94 | 1006.2 |
| 20260507094327 | 41 | 204 | 0.0 | 1.7 | 0.00 | 0.00 | 0.00 | 94 | 1006.2 |
| 20260507093825 | 41 | 153 | 0.0 | 1.7 | 0.00 | 0.00 | 0.00 | 93 | 1005.9 |
| 20260507093324 | 41 | 83 | 1.7 | 2.6 | 0.00 | 0.00 | 0.00 | 92 | 1006.0 |
| 20260507092821 | 42 | 81 | 0.9 | 2.6 | 0.00 | 0.00 | 0.00 | 90 | 1006.3 |
| 20260507092317 | 42 | 33 | 0.0 | 1.7 | 0.00 | 0.00 | 0.00 | 90 | 1006.3 |
| 20260507091814 | 42 | 76 | 0.0 | 2.6 | 0.00 | 0.00 | 0.00 | 87 | 1006.5 |
| 20260507091310 | 42 | 250 | 1.7 | 2.6 | 0.00 | 0.00 | 0.00 | 86 | 1006.3 |
| 20260507090805 | 42 | 253 | 2.6 | 4.3 | 0.00 | 0.00 | 0.00 | 89 | 1006.4 |
| 20260507090302 | 42 | 299 | 0.9 | 1.7 | 0.00 | 0.00 | 0.00 | 93 | 1006.2 |
| 20260507085759 | 42 | 107 | 0.9 | 1.7 | 0.00 | 0.00 | 0.00 | 92 | 1006.2 |
| 20260507085256 | 42 | 80 | 0.0 | 1.7 | 0.00 | 0.00 | 0.00 | 90 | 1006.2 |
| 20260507084753 | 42 | 202 | 0.0 | 1.7 | 0.00 | 0.00 | 0.00 | 86 | 1006.1 |
| 20260507084249 | 42 | 243 | 1.7 | 1.7 | 0.00 | 0.00 | 0.00 | 87 | 1005.9 |
| 20260507083747 | 42 | 253 | 1.7 | 1.7 | 0.00 | 0.00 | 0.00 | 91 | 1006.0 |
| 20260507083243 | 42 | 114 | 1.7 | 1.7 | 0.00 | 0.00 | 0.00 | 89 | 1005.9 |
| 20260507082739 | 42 | 301 | 2.6 | 3.5 | 0.00 | 0.00 | 0.00 | 92 | 1005.7 |
| 20260507082235 | 42 | 259 | 1.7 | 1.7 | 0.00 | 0.00 | 0.00 | 94 | 1005.6 |
| 20260507081732 | 42 | 115 | 0.9 | 1.7 | 0.00 | 0.00 | 0.00 | 93 | 1005.5 |
| 20260507081228 | 43 | 305 | 0.0 | 0.9 | 0.00 | 0.00 | 0.00 | 92 | 1005.7 |
| 20260507080725 | 43 | 352 | 0.0 | 0.9 | 0.00 | 0.00 | 0.00 | 89 | 1006.1 |
| 20260507080221 | 43 | 296 | 2.6 | 2.6 | 0.00 | 0.00 | 0.00 | 89 | 1006.2 |
| 20260507075717 | 42 | 279 | 1.7 | 1.7 | 0.00 | 0.00 | 0.00 | 90 | 1006.4 |
| 20260507075213 | 42 | 296 | 0.9 | 2.6 | 0.00 | 0.00 | 0.00 | 91 | 1006.5 |
| 20260507074710 | 42 | 283 | 0.9 | 1.7 | 0.00 | 0.00 | 0.00 | 90 | 1006.5 |
| 20260507074208 | 43 | 103 | 0.0 | 1.7 | 0.00 | 0.00 | 0.00 | 90 | 1006.3 |
| 20260507073704 | 42 | 304 | 0.0 | 1.7 | 0.00 | 0.00 | 0.00 | 90 | 1006.3 |
| 20260507073200 | 42 | 282 | 0.0 | 0.9 | 0.00 | 0.00 | 0.00 | 93 | 1005.8 |
| 20260507072658 | 42 | 266 | 2.6 | 2.6 | 0.00 | 0.00 | 0.00 | 94 | 1005.9 |
| 20260507072155 | 42 | 165 | 0.0 | 0.9 | 0.00 | 0.00 | 0.00 | 93 | 1005.9 |
| 20260507071653 | 43 | 38 | 0.0 | 1.7 | 0.00 | 0.00 | 0.00 | 91 | 1005.7 |
| 20260507071149 | 43 | 298 | 0.9 | 1.7 | 0.00 | 0.00 | 0.00 | 88 | 1005.9 |
| 20260507070646 | 43 | 324 | 4.3 | 8.7 | 0.00 | 0.00 | 0.00 | 88 | 1005.9 |
| 20260507070143 | 43 | 139 | 1.7 | 1.7 | 0.00 | 0.00 | 0.00 | 91 | 1006.0 |
| 20260507065639 | 44 | 154 | 1.7 | 1.7 | 0.00 | 0.00 | 0.00 | 89 | 1005.8 |
| 20260507065136 | 44 | 306 | 3.5 | 4.3 | 0.00 | 0.00 | 0.00 | 86 | 1005.7 |
| 20260507064634 | 44 | 312 | 5.2 | 7.8 | 0.00 | 0.00 | 0.00 | 85 | 1005.8 |
| 20260507064133 | 44 | 294 | 7.0 | 7.0 | 0.00 | 0.00 | 0.00 | 86 | 1005.7 |
| 20260507063630 | 44 | 295 | 4.3 | 9.6 | 0.00 | 0.00 | 0.00 | 86 | 1005.3 |
| 20260507063127 | 44 | 317 | 2.6 | 5.2 | 0.00 | 0.00 | 0.00 | 87 | 1005.3 |
| 20260507062623 | 44 | 287 | 5.2 | 7.0 | 0.00 | 0.00 | 0.00 | 86 | 1005.5 |
| 20260507062121 | 44 | 305 | 5.2 | 9.6 | 0.00 | 0.00 | 0.00 | 86 | 1005.6 |
| 20260507061619 | 44 | 286 | 6.1 | 9.6 | 0.00 | 0.00 | 0.00 | 85 | 1005.3 |
| 20260507061117 | 45 | 319 | 1.7 | 3.5 | 0.00 | 0.00 | 0.00 | 86 | 1005.4 |
| 20260507060614 | 44 | 274 | 3.5 | 4.3 | 0.00 | 0.00 | 0.00 | 89 | 1005.5 |
| 20260507060111 | 44 | 268 | 3.5 | 4.3 | 0.00 | 0.00 | 0.00 | 90 | 1005.6 |
| 20260507055606 | 44 | 302 | 5.2 | 7.8 | 0.00 | 0.00 | 0.00 | 96 | 1005.5 |
| 20260507055102 | 44 | 243 | 1.7 | 1.7 | 0.00 | 0.00 | 0.00 | 97 | 1005.5 |
| 20260507054558 | 45 | 174 | 0.0 | 1.7 | 0.00 | 0.00 | 0.00 | 97 | 1005.2 |
| 20260507054055 | 45 | 219 | 0.0 | 1.7 | 0.00 | 0.00 | 0.00 | 97 | 1005.2 |
| 20260507053553 | 45 | 121 | 1.7 | 1.7 | 0.00 | 0.00 | 0.00 | 97 | 1005.0 |
| 20260507053052 | 45 | 124 | 0.0 | 0.9 | 0.00 | 0.00 | 0.00 | 97 | 1004.6 |
| 20260507052549 | 45 | 119 | 0.0 | 0.0 | 0.00 | 0.00 | 0.00 | 97 | 1004.9 |
| 20260507052046 | 45 | 283 | 0.0 | 1.7 | 0.00 | 0.00 | 0.00 | 97 | 1005.3 |
| 20260507051543 | 45 | 150 | 0.0 | 0.9 | 0.00 | 0.00 | 0.00 | 97 | 1005.4 |
| 20260507051040 | 45 | 6 | 0.0 | 0.9 | 0.00 | 0.00 | 0.00 | 97 | 1005.3 |
| 20260507050536 | 45 | 141 | 0.9 | 0.9 | 0.00 | 0.00 | 0.00 | 96 | 1005.6 |
| 20260507050033 | 45 | 222 | 0.9 | 1.7 | 0.00 | 0.00 | 0.00 | 96 | 1005.3 |
| 20260507045530 | 45 | 109 | 0.9 | 1.7 | 0.00 | 0.00 | 0.00 | 96 | 1005.2 |
| 20260507045027 | 45 | 235 | 0.0 | 0.9 | 0.02 | 0.00 | 0.00 | 96 | 1005.4 |
| 20260507044524 | 46 | 338 | 0.0 | 0.9 | 0.02 | 0.00 | 0.00 | 95 | 1005.5 |
| 20260507044020 | 46 | 193 | 0.0 | 0.9 | 0.00 | 0.00 | 0.00 | 95 | 1005.3 |
| 20260507043516 | 46 | 123 | 1.7 | 1.7 | 0.00 | 0.00 | 0.00 | 95 | 1005.1 |
| 20260507043014 | 46 | 214 | 1.7 | 2.6 | 0.00 | 0.00 | 0.00 | 94 | 1005.4 |
| 20260507042510 | 46 | 272 | 2.6 | 3.5 | 0.00 | 0.00 | 0.00 | 94 | 1005.4 |
| 20260507042005 | 46 | 202 | 0.0 | 0.9 | 0.00 | 0.00 | 0.00 | 94 | 1005.5 |
| 20260507041503 | 46 | 250 | 3.5 | 3.5 | 0.00 | 0.00 | 0.00 | 95 | 1005.5 |
| 20260507040959 | 46 | 309 | 1.7 | 1.7 | 0.00 | 0.00 | 0.00 | 95 | 1005.6 |
| 20260507040455 | 46 | 283 | 0.0 | 1.7 | 0.02 | 0.00 | 0.00 | 95 | 1005.7 |
| 20260507035951 | 47 | 231 | 2.6 | 2.6 | 0.02 | 1.39 | 1.39 | 95 | 1005.6 |
| 20260507035448 | 47 | 314 | 2.6 | 4.3 | 0.00 | 1.38 | 1.38 | 96 | 1005.4 |
| 20260507034945 | 47 | 240 | 0.0 | 0.9 | 0.02 | 1.38 | 1.38 | 97 | 1005.5 |
| 20260507034441 | 47 | 177 | 0.9 | 1.7 | 0.05 | 1.38 | 1.38 | 96 | 1005.5 |
| 20260507033940 | 47 | 113 | 0.0 | 0.9 | 0.05 | 1.38 | 1.38 | 96 | 1005.5 |
| 20260507033437 | 47 | 303 | 4.3 | 7.0 | 0.07 | 1.37 | 1.37 | 97 | 1005.7 |
| 20260507032934 | 47 | 267 | 2.6 | 3.5 | 0.07 | 1.37 | 1.37 | 97 | 1005.7 |
| 20260507032431 | 47 | 262 | 1.7 | 2.6 | 0.02 | 1.36 | 1.36 | 97 | 1005.5 |
| 20260507031927 | 47 | 243 | 0.0 | 1.7 | 0.00 | 1.36 | 1.36 | 97 | 1005.4 |
| 20260507031426 | 47 | 249 | 2.6 | 2.6 | 0.00 | 1.36 | 1.36 | 97 | 1005.3 |
| 20260507030920 | 47 | 242 | 1.7 | 2.6 | 0.05 | 1.36 | 1.36 | 97 | 1005.3 |
| 20260507030418 | 48 | 231 | 0.9 | 2.6 | 0.12 | 1.36 | 1.36 | 98 | 1005.2 |
| 20260507025915 | 48 | 259 | 2.6 | 3.5 | 0.28 | 1.35 | 1.35 | 97 | 1005.1 |